DLH2HK LIMC-EDDV

Flight info

Callsign DLH2HK
Flight time 1h 7m
Altitude 36000
Route PEPAG N851 ABESI/N0440F380 N851 UTAVO DCT ROLSA/N0437F370 DCT LOKTA DCT TEDGO DCT HAREM DCT LOHRE DCT MASEK/N0438F380 Z99 ELNAT P605 WERRA WERRA1X
Aircraft A320/M-SDE3FGHIRWY/LB1

Departure

Time 2026-05-04 09:17
Airport Milan Malpensa International Airport (LIMC)

Arrival

Time 2026-05-04 10:25
Airport Hannover Airport (EDDV)
Time Latitude Longitude Altitude Speed Heading
2026-05-04 08:46 45.62384 8.71718 740 ft 0 kts 349°
2026-05-04 09:07 45.62311 8.71726 741 ft 4 kts 78°
2026-05-04 09:08 45.62317 8.71764 741 ft 4 kts 78°
2026-05-04 09:08 45.62322 8.71801 741 ft 4 kts 79°
2026-05-04 09:08 45.62325 8.71821 741 ft 0 kts 79°
2026-05-04 09:10 45.62327 8.71841 739 ft 3 kts 79°
2026-05-04 09:10 45.62336 8.71909 741 ft 10 kts 79°
2026-05-04 09:10 45.62351 8.72019 741 ft 11 kts 79°
2026-05-04 09:11 45.62366 8.72127 741 ft 10 kts 78°
2026-05-04 09:11 45.62346 8.72218 741 ft 12 kts 150°
2026-05-04 09:11 45.62253 8.72253 741 ft 15 kts 160°
2026-05-04 09:11 45.62226 8.72353 741 ft 11 kts 80°
2026-05-04 09:12 45.62240 8.72457 740 ft 12 kts 79°
2026-05-04 09:12 45.62261 8.72606 741 ft 15 kts 79°
2026-05-04 09:14 45.61693 8.73307 741 ft 22 kts 122°
2026-05-04 09:14 45.61623 8.73458 741 ft 12 kts 124°
2026-05-04 09:14 45.61585 8.73559 741 ft 13 kts 104°
2026-05-04 09:14 45.61601 8.73701 739 ft 14 kts 64°
2026-05-04 09:15 45.61680 8.73719 739 ft 13 kts 347°
2026-05-04 09:15 45.61906 8.73656 739 ft 68 kts 348°
2026-05-04 09:15 45.62591 8.73467 742 ft 130 kts 349°
2026-05-04 09:15 45.63627 8.73177 783 ft 173 kts 349°
2026-05-04 09:17 45.62087 8.66204 5866 ft 241 kts 158°
2026-05-04 09:18 45.60540 8.67151 6777 ft 243 kts 156°
2026-05-04 09:18 45.59009 8.68116 7631 ft 245 kts 157°
2026-05-04 09:18 45.57424 8.69114 8539 ft 247 kts 157°
2026-05-04 09:18 45.55867 8.70086 9428 ft 248 kts 158°
2026-05-04 09:19 45.54253 8.71084 10304 ft 251 kts 158°
2026-05-04 09:19 45.52684 8.72203 11054 ft 257 kts 145°
2026-05-04 09:19 45.51542 8.74218 11761 ft 271 kts 117°
2026-05-04 09:19 45.51206 8.76870 12442 ft 286 kts 88°
2026-05-04 09:20 45.51817 8.79614 13112 ft 298 kts 65°
2026-05-04 09:20 45.52775 8.82266 13832 ft 303 kts 64°
2026-05-04 09:20 45.53767 8.84951 14474 ft 308 kts 64°
2026-05-04 09:20 45.54786 8.87704 15154 ft 311 kts 64°
2026-05-04 09:21 45.55783 8.90408 15836 ft 313 kts 64°
2026-05-04 09:21 45.56965 8.93031 16506 ft 318 kts 51°
2026-05-04 09:21 45.58714 8.95175 16694 ft 340 kts 28°
2026-05-04 09:21 45.61012 8.96283 16830 ft 359 kts 11°
2026-05-04 09:22 45.63528 8.97019 16958 ft 379 kts 10°
2026-05-04 09:22 45.66161 8.97762 17316 ft 390 kts 10°
2026-05-04 09:22 45.68844 8.98515 17898 ft 395 kts 10°
2026-05-04 09:22 45.71553 8.99283 18492 ft 399 kts 11°
2026-05-04 09:23 45.74286 9.00066 19027 ft 402 kts 11°
2026-05-04 09:23 45.77034 9.00863 19571 ft 405 kts 11°
2026-05-04 09:23 45.79803 9.01673 20141 ft 408 kts 11°
2026-05-04 09:23 45.82593 9.02493 20703 ft 411 kts 11°
2026-05-04 09:25 46.02762 9.06437 24095 ft 427 kts 351°
2026-05-04 09:25 46.05717 9.05941 24526 ft 429 kts 351°
2026-05-04 09:26 46.08690 9.05448 24901 ft 431 kts 351°
2026-05-04 09:26 46.11681 9.04958 25297 ft 434 kts 351°
2026-05-04 09:26 46.13667 9.04637 25574 ft 435 kts 351°
2026-05-04 09:26 46.17457 9.04040 26079 ft 438 kts 352°
2026-05-04 09:27 46.20498 9.03610 26466 ft 441 kts 352°
2026-05-04 09:27 46.22634 9.03308 26727 ft 442 kts 351°
2026-05-04 09:27 46.25698 9.02878 27099 ft 445 kts 352°
2026-05-04 09:27 46.28765 9.02489 27483 ft 447 kts 353°
2026-05-04 09:28 46.31826 9.02116 27863 ft 449 kts 352°
2026-05-04 09:28 46.34951 9.01727 28239 ft 452 kts 352°
2026-05-04 09:28 46.38137 9.01314 28594 ft 454 kts 352°
2026-05-04 09:28 46.41293 9.00892 28980 ft 457 kts 352°
2026-05-04 09:29 46.44465 9.00461 29340 ft 459 kts 352°
2026-05-04 09:29 46.47635 9.00030 29663 ft 461 kts 352°
2026-05-04 09:29 46.50838 8.99598 30008 ft 463 kts 352°
2026-05-04 09:29 46.54056 8.99165 30319 ft 466 kts 352°
2026-05-04 09:30 46.57289 8.98731 30590 ft 467 kts 352°
2026-05-04 09:30 46.60535 8.98295 30849 ft 469 kts 352°
2026-05-04 09:30 46.63792 8.97855 31112 ft 471 kts 352°
2026-05-04 09:30 46.67063 8.97413 31347 ft 473 kts 352°
2026-05-04 09:31 46.70343 8.96969 31656 ft 473 kts 352°
2026-05-04 09:31 46.73619 8.96522 32033 ft 472 kts 352°
2026-05-04 09:31 46.76887 8.96078 32432 ft 471 kts 352°
2026-05-04 09:31 46.80152 8.95638 32753 ft 471 kts 352°
2026-05-04 09:32 46.83411 8.95199 33139 ft 469 kts 351°
2026-05-04 09:32 46.86660 8.94755 33509 ft 468 kts 351°
2026-05-04 09:34 47.09112 8.91664 35771 ft 461 kts 351°
2026-05-04 09:34 47.12313 8.91225 35990 ft 462 kts 351°
2026-05-04 09:34 47.18682 8.90348 36051 ft 458 kts 351°
2026-05-04 09:35 47.23997 8.89606 36051 ft 458 kts 351°
2026-05-04 09:35 47.30381 8.89490 36052 ft 464 kts
2026-05-04 09:37 47.55717 8.97761 36046 ft 467 kts
2026-05-04 09:38 47.62056 8.99864 36036 ft 467 kts
2026-05-04 09:38 47.68370 9.01976 36042 ft 467 kts
2026-05-04 09:39 47.74714 9.04106 36035 ft 468 kts
2026-05-04 09:39 47.81061 9.06235 36028 ft 468 kts
2026-05-04 09:40 47.87409 9.08374 36034 ft 468 kts
2026-05-04 09:40 47.93758 9.10517 36030 ft 468 kts
2026-05-04 09:42 48.19184 9.18708 36021 ft 465 kts
2026-05-04 09:43 48.25569 9.19759 36016 ft 465 kts
2026-05-04 09:43 48.32039 9.20848 36022 ft 465 kts
2026-05-04 09:44 48.38424 9.21932 36026 ft 465 kts
2026-05-04 09:46 48.64169 9.26306 36015 ft 465 kts
2026-05-04 09:46 48.70601 9.27299 36021 ft 464 kts
2026-05-04 09:47 48.77030 9.28248 36021 ft 464 kts
2026-05-04 09:49 49.02762 9.32195 36022 ft 465 kts
2026-05-04 09:51 49.25283 9.35701 36032 ft 465 kts
2026-05-04 09:51 49.31719 9.36699 36039 ft 465 kts
2026-05-04 09:52 49.38123 9.37709 36039 ft 466 kts
2026-05-04 09:52 49.44573 9.38716 36033 ft 466 kts
2026-05-04 09:53 49.51029 9.39738 36031 ft 466 kts
2026-05-04 09:53 49.57533 9.40762 36032 ft 467 kts
2026-05-04 09:54 49.63992 9.41788 36042 ft 467 kts
2026-05-04 09:54 49.70410 9.42809 36042 ft 467 kts
2026-05-04 09:55 49.76872 9.43837 36043 ft 467 kts
2026-05-04 09:55 49.83335 9.44866 36051 ft 467 kts
2026-05-04 09:56 49.89802 9.45892 36046 ft 467 kts
2026-05-04 09:56 49.96258 9.46932 36044 ft 467 kts
2026-05-04 09:57 50.02730 9.47980 36045 ft 468 kts
2026-05-04 09:57 50.09204 9.49042 36053 ft 468 kts
2026-05-04 09:58 50.15672 9.50136 36052 ft 468 kts
2026-05-04 09:58 50.22142 9.51227 36051 ft 468 kts
2026-05-04 10:00 50.47971 9.55566 36054 ft 466 kts
2026-05-04 10:02 50.66541 9.58743 35041 ft 464 kts
2026-05-04 10:04 50.88986 9.62947 30589 ft 453 kts
2026-05-04 10:04 50.92099 9.63570 30029 ft 449 kts
2026-05-04 10:04 50.95188 9.64176 29442 ft 445 kts
2026-05-04 10:04 50.98246 9.64768 28904 ft 440 kts
2026-05-04 10:05 51.01267 9.65350 28373 ft 435 kts
2026-05-04 10:05 51.04257 9.65928 27850 ft 430 kts
2026-05-04 10:05 51.07214 9.66504 27338 ft 426 kts
2026-05-04 10:05 51.10144 9.67077 26842 ft 422 kts
2026-05-04 10:06 51.13039 9.67649 26355 ft 417 kts
2026-05-04 10:06 51.15907 9.68219 25887 ft 413 kts
2026-05-04 10:06 51.18747 9.68783 25430 ft 409 kts
2026-05-04 10:08 51.35273 9.71510 22686 ft 387 kts
2026-05-04 10:08 51.37929 9.71931 22237 ft 384 kts
2026-05-04 10:08 51.40576 9.72358 21806 ft 381 kts
2026-05-04 10:08 51.43204 9.72788 21344 ft 379 kts
2026-05-04 10:09 51.45822 9.73218 20884 ft 377 kts
2026-05-04 10:09 51.48428 9.73655 20428 ft 376 kts
2026-05-04 10:09 51.51025 9.74124 19968 ft 376 kts
2026-05-04 10:09 51.53619 9.74616 19507 ft 375 kts
2026-05-04 10:10 51.56206 9.75119 19048 ft 374 kts
2026-05-04 10:10 51.58789 9.75623 18588 ft 374 kts
2026-05-04 10:10 51.61367 9.76124 18103 ft 373 kts
2026-05-04 10:10 51.63942 9.76621 17631 ft 371 kts
2026-05-04 10:11 51.66499 9.77109 17176 ft 369 kts
2026-05-04 10:11 51.69044 9.77590 16724 ft 367 kts
2026-05-04 10:11 51.71581 9.78070 16286 ft 366 kts
2026-05-04 10:11 51.74100 9.78548 15854 ft 364 kts
2026-05-04 10:12 51.76609 9.79026 15413 ft 362 kts
2026-05-04 10:12 51.79108 9.79501 14973 ft 361 kts
2026-05-04 10:12 51.81598 9.79972 14535 ft 360 kts
2026-05-04 10:12 51.84079 9.80447 14092 ft 358 kts
2026-05-04 10:13 51.86549 9.80927 13623 ft 357 kts
2026-05-04 10:13 51.89008 9.81405 13163 ft 355 kts
2026-05-04 10:13 51.91451 9.81878 12706 ft 352 kts
2026-05-04 10:13 51.93869 9.82348 12258 ft 349 kts
2026-05-04 10:14 51.96270 9.82817 11803 ft 346 kts
2026-05-04 10:14 51.98652 9.83283 11351 ft 343 kts
2026-05-04 10:16 52.13532 9.86181 9497 ft 297 kts
2026-05-04 10:16 52.15581 9.86582 9106 ft 296 kts
2026-05-04 10:16 52.17620 9.86978 8706 ft 295 kts
2026-05-04 10:16 52.19650 9.87371 8315 ft 293 kts
2026-05-04 10:17 52.21671 9.87762 7920 ft 292 kts
2026-05-04 10:17 52.23670 9.88154 7512 ft 289 kts
2026-05-04 10:19 52.37244 9.91748 3916 ft 275 kts
2026-05-04 10:19 52.39123 9.92271 3514 ft 273 kts
2026-05-04 10:19 52.40958 9.92781 3317 ft 261 kts
2026-05-04 10:19 52.42709 9.93269 3191 ft 250 kts
2026-05-04 10:20 52.44388 9.93381 3073 ft 234 kts 342°
2026-05-04 10:20 52.45685 9.92028 2870 ft 219 kts 303°
2026-05-04 10:20 52.46139 9.89726 2557 ft 214 kts 273°
2026-05-04 10:20 52.46206 9.87333 2267 ft 204 kts 271°
2026-05-04 10:21 52.46262 9.85077 1998 ft 194 kts 272°
2026-05-04 10:21 52.46321 9.82985 1789 ft 179 kts 273°
2026-05-04 10:21 52.46381 9.81053 1569 ft 159 kts 273°
2026-05-04 10:21 52.46433 9.79322 1329 ft 147 kts 274°
2026-05-04 10:22 52.46524 9.76173 961 ft 134 kts 272°
2026-05-04 10:22 52.46562 9.74650 763 ft 133 kts 271°
2026-05-04 10:22 52.46605 9.73149 613 ft 133 kts 271°
2026-05-04 10:23 52.46650 9.71637 421 ft 132 kts 270°
2026-05-04 10:23 52.46695 9.70121 237 ft 133 kts 271°
2026-05-04 10:25 52.46556 9.66866 178 ft 18 kts 92°
2026-05-04 10:25 52.46550 9.67090 178 ft 20 kts 92°
2026-05-04 10:25 52.46544 9.67308 178 ft 18 kts 93°
2026-05-04 10:25 52.46536 9.67569 178 ft 26 kts 92°
2026-05-04 10:26 52.46528 9.67882 178 ft 28 kts 92°
2026-05-04 10:26 52.46520 9.68159 178 ft 23 kts 93°
2026-05-04 10:26 52.46454 9.68395 178 ft 24 kts 137°
2026-05-04 10:26 52.46316 9.68570 178 ft 25 kts 143°
2026-05-04 10:27 52.46180 9.68741 178 ft 25 kts 142°
2026-05-04 10:27 52.46044 9.68914 178 ft 21 kts 142°
2026-05-04 10:27 52.45955 9.69024 179 ft 15 kts 143°
2026-05-04 10:27 52.45877 9.69121 178 ft 13 kts 143°
2026-05-04 10:28 52.45813 9.69199 178 ft 7 kts 144°
2026-05-04 10:28 52.45807 9.69252 178 ft 6 kts 60°
2026-05-04 10:28 52.45828 9.69293 179 ft 0 kts 47°
2026-05-04 10:29 52.45838 9.69312 179 ft 4 kts 47°
2026-05-04 10:29 52.45843 9.69320 179 ft 0 kts 47°